Location: Kermapucano
(48.0667°N, 3.3000°W)
Time: 19:53:38
(UTC+00:00)

CZ-4B DEB - Pass Details

Date: 29 November 2020
Orbit: 841 x 861 km, 99.1° (Epoch: 27 January)

Event Time Altitude Azimuth Distance (km) Brightness Sun altitude
Rises 06:09:12 0° 16° (NNE) 3,409 7.4 -14.6°
Reaches altitude 10° 06:11:35 10° 19° (NNE) 2,471 6.7 -14.3°
Maximum altitude 06:17:03 73° 104° (ESE) 884 4.5 -13.4°
Drops below altitude 10° 06:22:30 10° 189° (S) 2,460 6.7 -12.5°
Sets 06:24:52 0° 191° (SSW) 3,393 7.4 -12.1°
